Location: Unspecified
(0.0000°N, 0.0000°E)
Time: 14:00:57
(UTC+00:00)

THORAD DELTA 1 DEB - Pass Details

Date: 15 February 2026
Orbit: 1442 x 1568 km, 101.4° (Epoch: 22 February)

Event Time Altitude Azimuth Distance (km) Brightness Sun altitude
Exits shadow 20:22:30 44° 132° (SE) 2,051 ? -31.3°
Drops below altitude 10° 20:29:23 10° 177° (S) 3,751 ? -32.9°
Sets 20:32:22 0° 182° (S) 4,727 ? -33.6°
